Aeroporto :
LOGIN :

Iscrizione | Disclaimer

   EN    FR    IT 

 










Sommario :    VFR   VFR Marginale   IFR   IFR Intensivo   IFR Molto Intensivo
Visibilità : 
Base nubi : 
>= 8 km
>= 3000ft
5 / 8 km
1000 / 3000 ft
1500m / 5 km
500 / 1000 ft
800 / 1500m
200 / 500 ft
< 800m
< 200 ft
Simboli :   Temporali  Nebbia  Neve Forte  Precipitazioni Forti  Vento > 20 kt
SIGMETs :   Varie  Temporali  Ghiacco  Turbolenza  Onda orograficha  Ceneri Vulcaniche







- Altitudine del aeroporto : 1460 ft


LSMA - Alpnach

ULTIMO METAR :
  • 181720Z AUTO 18008KT 9999NDV -SHRA FEW021 SCT025 BKN034 20/18 Q1016 RESHRA RMK

METARs OBSOLETI :
  • 181650Z AUTO 18005KT 9999NDV -SHRA SCT030 BKN042 BKN095 20/18 Q1016 RMK
  • 181620Z AUTO 26005KT 150V300 9999NDV -SHRA FEW036 SCT082 BKN100 20/18 Q1016 RESHRA RMK
  • 181550Z AUTO 16004KT 080V240 9999NDV FEW026 BKN100 20/19 Q1016 RESHRA RMK
  • 181520Z AUTO 18003KT 120V250 3700NDV +SHRA FEW022 BKN026 OVC030 20/18 Q1015 RMK
  • 181450Z AUTO 21007KT 160V240 2200NDV SHRA FEW026 BKN068 BKN100 22/18 Q1016 RMK

Previsioni scadute.
Nessun NOTAM noto per questo aeroporto.



MetMap, La meteo Aeronautica in un colpo d'occhio ! - Copyright ORBIFLY Dicembre 2007 - Disclaimer

ORBIFLY MET'MAP TEAM :

Programmazione e sviluppo : Alexandra Zaïnal
Concezione e sviluppo : Baudouin d'Aumeries
Co-Programmazione e sviluppo : Marc-Olivier Méhu
Supporto tecnico e logistico : Manuel Goepfert
Aiuto per la traduzione : Arnaldo La Scala

Contatto : metmap@orbifly.com




FONTI E CREDITI :

   NOAA